Change the Weather History Date:

Tuesday, October 15, 2013

  Actual Average Record
Temperature  
Mean Temperature 42 °F -  
Max Temperature 61 °F 67 °F 86 °F (1954)
Min Temperature 23 °F 32 °F 20 °F (1966)
Degree Days  
Heating Degree Days 23    
Moisture  
Dew Point 18 °F    
Average Humidity 44    
Maximum Humidity 78    
Minimum Humidity 18    
Precipitation  
Precipitation 0.00 in - - ()
Sea Level Pressure  
Sea Level Pressure 30.26 in    
Wind  
Wind Speed 4 mph (NNE)    
Max Wind Speed 12 mph    
Max Gust Speed -    
Visibility 10 miles    
Events      
Averages and records for this station are not official NWS values.
T = Trace of Precipitation, MM = Missing Value Source: NWS Daily Summary

Daily Weather History Graph

Daily Weather History Graph

Search for Another Location

Airport or City:

Trip Planner

Search our weather history database for the weather conditions in past years. The results will help you decide how hot, cold, wet, or windy it might be!

Date:

Astronomy

Oct. 15, 2013 Rise Set
Actual Time 7:05 AM PDT 6:14 PM PDT
Civil Twilight 6:37 AM PDT 6:41 PM PDT
Nautical Twilight 6:06 AM PDT 7:12 PM PDT
Astronomical Twilight 5:34 AM PDT 7:44 PM PDT
Moon 4:22 PM PDT (10/15) 3:33 AM PDT (10/15)
Length of Visible Light 12h 03m
Length of Day
11h 08m
Waxing Gibbous, 88% of the Moon is Illuminated
Oct 15
Waxing Gibbous
Oct 18
Full
Oct 26
Last Quarter
Nov 3
New
Nov 9
First Quarter

Hourly Weather History & Observations

Time (PDT) Temp. Windchill Dew Point Humidity Pressure Visibility Wind Dir Wind Speed Gust Speed Precip Events Conditions
12:53 AM 28.0 °F 22.8 °F 19.9 °F 72% 30.26 in 10.0 mi SW 4.6 mph - N/A   Clear
1:53 AM 30.0 °F 26.5 °F 21.0 °F 69% 30.25 in 10.0 mi NNW 3.5 mph - N/A   Clear
2:53 AM 30.0 °F - 21.0 °F 69% 30.25 in 10.0 mi Calm Calm - N/A   Clear
3:53 AM 28.0 °F - 21.0 °F 75% 30.25 in 10.0 mi Calm Calm - N/A   Clear
4:53 AM 25.0 °F 19.3 °F 18.0 °F 75% 30.27 in 10.0 mi Variable 4.6 mph - N/A   Clear
5:53 AM 26.1 °F 18.4 °F 18.0 °F 71% 30.27 in 10.0 mi WNW 6.9 mph - N/A   Clear
6:53 AM 23.0 °F 17.0 °F 17.1 °F 78% 30.30 in 10.0 mi WNW 4.6 mph - N/A   Clear
7:53 AM 25.0 °F 20.7 °F 17.1 °F 72% 30.31 in 10.0 mi SE 3.5 mph - N/A   Clear
8:53 AM 42.1 °F 39.2 °F 24.1 °F 49% 30.28 in 10.0 mi Variable 4.6 mph - N/A   Clear
9:53 AM 48.9 °F - 25.0 °F 39% 30.28 in 10.0 mi NE 9.2 mph - N/A   Clear
10:53 AM 53.1 °F - 25.0 °F 34% 30.27 in 10.0 mi NE 11.5 mph - N/A   Clear
11:53 AM 55.9 °F - 23.0 °F 28% 30.28 in 10.0 mi ENE 11.5 mph - N/A   Clear
12:53 PM 57.0 °F - 21.9 °F 26% 30.27 in 10.0 mi ESE 5.8 mph - N/A   Clear
1:53 PM 59.0 °F - 21.0 °F 23% 30.24 in 10.0 mi NE 8.1 mph - N/A   Clear
2:53 PM 60.1 °F - 19.9 °F 21% 30.23 in 10.0 mi Variable 5.8 mph - N/A   Clear
3:53 PM 60.1 °F - 19.0 °F 20% 30.22 in 10.0 mi NNW 3.5 mph - N/A   Clear
4:53 PM 61.0 °F - 17.1 °F 18% 30.22 in 10.0 mi ENE 6.9 mph - N/A   Clear
5:53 PM 57.9 °F - 16.0 °F 19% 30.23 in 10.0 mi Calm Calm - N/A   Clear
6:53 PM 51.1 °F - 15.1 °F 24% 30.26 in 10.0 mi Calm Calm - N/A   Clear
7:53 PM 44.1 °F - 12.9 °F 28% 30.28 in 10.0 mi Calm Calm - N/A   Clear
8:53 PM 39.0 °F - 9.0 °F 29% 30.26 in 10.0 mi Calm Calm - N/A   Clear
9:53 PM 34.0 °F 31.0 °F 9.0 °F 35% 30.26 in 10.0 mi South 3.5 mph - N/A   Clear
10:53 PM 27.0 °F 20.5 °F 7.0 °F 43% 30.27 in 10.0 mi SW 5.8 mph - N/A   Clear
11:53 PM 30.9 °F 24.3 °F 9.0 °F 40% 30.23 in 10.0 mi WNW 6.9 mph - N/A   Clear